Flag for U.S.A. Weather past 2 weeks in Charleston, South Carolina, U.S.A.

Now
74 °F

Passing clouds.


Feels Like: 74 °F
Forecast: 71 / 83 °F
Wind: 3 mph from Southeast

Location: Charleston Air Force Base Reporting Station

Current Time: May 29, 2015 at 11:12:55 PM

Latest Report: May 29, 2015 at 9:56 PM


Visibility: 10 mi

Pressure: 30.18 "Hg

Humidity: 82%

Dew point: 68 °F

Location of CharlestonLocation

Historic Weather in Charleston — Graph

°F

Charleston temperature yesterday

Maximum temperature yesterday: 84 °F (at 2:56 PM)
Minimum temperature yesterday: 66 °F (at 11:56 PM)
Average temperature yesterday: 75 °F

Past Weeks' High & Low Weather Summary

 TemperatureHumidityPressure
High91 °F (May 19, 3:56 PM)97% (May 16, 6:56 AM)30.37 "Hg (May 16, 6:56 AM)
Low59 °F (May 24, 5:56 AM)33% (May 21, 5:56 PM)29.80 "Hg (May 21, 4:56 PM)
Average75 °F70%30.18 "Hg
* Reported May 14 9:56 PM — May 29 9:56 PM, Charleston, Weather by CustomWeather, © 2015

Note: Actual official high and low records may vary slightly from our data, if they occured in-between our weather recording intervals... More about our weather records

Advertising

Charleston weather history for previous 24 hours

 ConditionsComfort  
Time TempWeatherWind HumidityBarometerVisibility
9:56 PM
Fri, May 29
74 °FPassing clouds.3 mph82%30.18 "Hg10 mi
8:56 PM75 °FPassing clouds.8 mph79%30.16 "Hg10 mi
7:56 PM76 °FScattered clouds.8 mph72%30.16 "Hg10 mi
6:56 PM78 °FScattered clouds.9 mph69%30.15 "Hg10 mi
5:56 PM78 °FBroken clouds.8 mph69%30.16 "Hg10 mi
4:56 PM75 °FLight rain. Partly sunny.12 mph76%30.19 "Hg8 mi
3:56 PM78 °FBroken clouds.17 mph66%30.20 "Hg6 mi
2:56 PM81 °FBroken clouds.16 mph58%30.21 "Hg10 mi
1:56 PM80 °FBroken clouds.14 mph64%30.21 "Hg9 mi
12:56 PM82 °FBroken clouds.8 mph58%30.22 "Hg10 mi
11:56 AM80 °FBroken clouds.3 mph58%30.22 "Hg10 mi
10:56 AM80 °FBroken clouds.5 mph58%30.22 "Hg10 mi
9:56 AM80 °FPassing clouds.9 mph60%30.21 "Hg10 mi
8:56 AM76 °FPassing clouds.10 mph69%30.21 "Hg10 mi
7:56 AM71 °FPassing clouds.5 mph78%30.19 "Hg10 mi
6:56 AM65 °FPassing clouds.3 mph91%30.17 "Hg10 mi
5:56 AM63 °FClear.5 mph93%30.16 "Hg10 mi
4:56 AM64 °FClear.No wind94%30.15 "Hg10 mi
3:56 AM64 °FPassing clouds.3 mph90%30.16 "Hg10 mi
2:56 AM64 °FPassing clouds.3 mph94%30.17 "Hg10 mi
1:56 AM67 °FPassing clouds.No wind87%30.19 "Hg10 mi
12:56 AM67 °FPassing clouds.No wind87%30.20 "Hg10 mi
11:56 PM
Thu, May 28
66 °FPassing clouds.5 mph87%30.22 "Hg10 mi
Weather by CustomWeather, © 2015

See weather overviewHow to use our weather pages